Hourly Weather Bolshoe Bahovo

Today, 30 July, Friday

Time Temperature Precipitation Wind Pressure Humidity
00:00 +18°C° 0.1 mm 2 mps 737 mmHg 97%
01:00 +18°C° 0.1 mm 2 mps 737 mmHg 97%
02:00 +17°C° 0 mm 2 mps 737 mmHg 98%
03:00 +17°C° 0 mm 2 mps 737 mmHg 97%
04:00 +17°C° 0 mm 2 mps 737 mmHg 97%
05:00 +17°C° 0 mm 2 mps 737 mmHg 97%
06:00 +18°C° 0 mm 3 mps 737 mmHg 91%
07:00 +20°C° 0 mm 3 mps 737 mmHg 85%
08:00 +21°C° 0 mm 4 mps 737 mmHg 79%
09:00 +22°C° 0 mm 4 mps 737 mmHg 70%
10:00 +25°C° 0 mm 5 mps 737 mmHg 60%
11:00 +26°C° 0 mm 5 mps 737 mmHg 51%
12:00 +26°C° 0 mm 5 mps 737 mmHg 51%
13:00 +26°C° 0 mm 5 mps 737 mmHg 50%
14:00 +25°C° 0 mm 4 mps 737 mmHg 50%
15:00 +25°C° 0 mm 4 mps 737 mmHg 52%
16:00 +23°C° 0 mm 4 mps 737 mmHg 54%
17:00 +23°C° 0 mm 4 mps 737 mmHg 55%
18:00 +22°C° 0 mm 4 mps 737 mmHg 57%
19:00 +21°C° 0 mm 4 mps 737 mmHg 58%
20:00 +21°C° 0 mm 3 mps 737 mmHg 59%
21:00 +19°C° 0 mm 3 mps 737 mmHg 64%
22:00 +18°C° 0 mm 3 mps 737 mmHg 69%
23:00 +17°C° 0 mm 3 mps 737 mmHg 74%

Tomorrow, 31 July, Saturday

Time Temperature Precipitation Wind Pressure Humidity
00:00 +17°C° 0 mm 3 mps 737 mmHg 77%
01:00 +16°C° 0 mm 3 mps 737 mmHg 81%
02:00 +15°C° 0 mm 4 mps 737 mmHg 84%
03:00 +15°C° 0 mm 4 mps 737 mmHg 84%
04:00 +14°C° 0 mm 4 mps 737 mmHg 84%
05:00 +14°C° 0 mm 4 mps 737 mmHg 84%
06:00 +16°C° 0 mm 5 mps 737 mmHg 75%
07:00 +19°C° 0 mm 5 mps 737 mmHg 66%
08:00 +21°C° 0 mm 6 mps 737 mmHg 58%
09:00 +22°C° 0 mm 6 mps 737 mmHg 53%
10:00 +23°C° 0 mm 6 mps 737 mmHg 47%
11:00 +26°C° 0 mm 7 mps 738 mmHg 42%
12:00 +26°C° 0 mm 7 mps 738 mmHg 41%
13:00 +27°C° 0 mm 6 mps 738 mmHg 39%
14:00 +27°C° 0 mm 6 mps 738 mmHg 38%
15:00 +27°C° 0 mm 5 mps 738 mmHg 40%
16:00 +27°C° 0 mm 5 mps 738 mmHg 42%
17:00 +27°C° 0 mm 4 mps 738 mmHg 44%
18:00 +25°C° 0 mm 2 mps 738 mmHg 50%
19:00 +23°C° 0 mm 1 mps 738 mmHg 56%
20:00 +19°C° 0 mm 0 mps 737 mmHg 63%
21:00 +18°C° 0 mm 0 mps 738 mmHg 63%
22:00 +20°C° 0 mm 1 mps 738 mmHg 64%
23:00 +20°C° 0 mm 1 mps 738 mmHg 64%

Day after tomorrow, 1 August, Sunday

Time Temperature Precipitation Wind Pressure Humidity
00:00 +19°C° 0.4 mm 2 mps 738 mmHg 73%
01:00 +18°C° 0.4 mm 3 mps 738 mmHg 83%
02:00 +18°C° 0.4 mm 4 mps 738 mmHg 92%
03:00 +17°C° 1.4 mm 3 mps 738 mmHg 94%
04:00 +17°C° 1.4 mm 2 mps 737 mmHg 96%
05:00 +17°C° 1.4 mm 2 mps 737 mmHg 98%
06:00 +18°C° 0.3 mm 2 mps 737 mmHg 97%
07:00 +18°C° 0.3 mm 3 mps 737 mmHg 96%
08:00 +19°C° 0.3 mm 3 mps 738 mmHg 96%
09:00 +20°C° 0.1 mm 4 mps 738 mmHg 88%
10:00 +22°C° 0.1 mm 4 mps 738 mmHg 80%
11:00 +23°C° 0.1 mm 4 mps 738 mmHg 72%
12:00 +25°C° 0.1 mm 4 mps 738 mmHg 65%
13:00 +26°C° 0.1 mm 4 mps 738 mmHg 59%
14:00 +27°C° 0.1 mm 4 mps 738 mmHg 52%
15:00 +27°C° 0 mm 4 mps 738 mmHg 51%
16:00 +27°C° 0 mm 4 mps 738 mmHg 50%
17:00 +27°C° 0 mm 4 mps 738 mmHg 50%
18:00 +26°C° 0 mm 3 mps 738 mmHg 55%
19:00 +24°C° 0 mm 3 mps 738 mmHg 60%
20:00 +21°C° 0 mm 2 mps 738 mmHg 66%
21:00 +20°C° 0 mm 2 mps 738 mmHg 67%
22:00 +20°C° 0 mm 1 mps 738 mmHg 68%
23:00 +20°C° 0 mm 1 mps 738 mmHg 70%

2 August, Monday

Time Temperature Precipitation Wind Pressure Humidity
00:00 +19°C° 0 mm 1 mps 737 mmHg 71%
01:00 +18°C° 0 mm 2 mps 737 mmHg 72%
02:00 +18°C° 0 mm 2 mps 737 mmHg 74%
03:00 +18°C° 0 mm 2 mps 736 mmHg 76%
04:00 +18°C° 0 mm 2 mps 736 mmHg 78%
05:00 +18°C° 0 mm 3 mps 735 mmHg 81%
06:00 +18°C° 0.6 mm 3 mps 735 mmHg 86%
07:00 +18°C° 0.6 mm 3 mps 735 mmHg 91%
08:00 +18°C° 0.6 mm 3 mps 735 mmHg 96%
09:00 +19°C° 0 mm 3 mps 735 mmHg 91%
10:00 +20°C° 0 mm 3 mps 734 mmHg 87%
11:00 +21°C° 0 mm 3 mps 734 mmHg 83%
12:00 +21°C° 1.2 mm 4 mps 734 mmHg 84%
13:00 +21°C° 1.2 mm 5 mps 734 mmHg 85%
14:00 +21°C° 1.2 mm 7 mps 734 mmHg 86%
15:00 +20°C° 0.1 mm 7 mps 734 mmHg 85%
16:00 +18°C° 0.1 mm 7 mps 734 mmHg 85%
17:00 +17°C° 0.1 mm 7 mps 734 mmHg 85%
18:00 +16°C° 0 mm 5 mps 735 mmHg 87%
19:00 +17°C° 0 mm 4 mps 736 mmHg 89%
20:00 +16°C° 0 mm 3 mps 736 mmHg 91%
21:00 +16°C° 0 mm 3 mps 736 mmHg 90%
22:00 +16°C° 0 mm 3 mps 736 mmHg 89%
23:00 +15°C° 0 mm 4 mps 736 mmHg 88%

3 August, Tuesday

Time Temperature Precipitation Wind Pressure Humidity
00:00 +15°C° 0 mm 4 mps 737 mmHg 90%
01:00 +14°C° 0 mm 4 mps 737 mmHg 92%
02:00 +14°C° 0 mm 3 mps 737 mmHg 94%
03:00 +13°C° 0 mm 3 mps 738 mmHg 95%
04:00 +13°C° 0 mm 3 mps 738 mmHg 95%
05:00 +13°C° 0 mm 3 mps 738 mmHg 95%
06:00 +14°C° 0 mm 4 mps 739 mmHg 86%
07:00 +17°C° 0 mm 4 mps 739 mmHg 77%
08:00 +17°C° 0 mm 5 mps 739 mmHg 68%
09:00 +19°C° 0 mm 5 mps 739 mmHg 64%
10:00 +20°C° 0 mm 5 mps 740 mmHg 60%
11:00 +21°C° 0 mm 5 mps 740 mmHg 56%
12:00 +21°C° 0.3 mm 5 mps 740 mmHg 58%
13:00 +21°C° 0.3 mm 5 mps 740 mmHg 59%
14:00 +21°C° 0.3 mm 5 mps 740 mmHg 60%
15:00 +21°C° 0.1 mm 5 mps 740 mmHg 59%
16:00 +21°C° 0.1 mm 4 mps 741 mmHg 57%
17:00 +21°C° 0.1 mm 4 mps 741 mmHg 55%
18:00 +20°C° 0 mm 3 mps 741 mmHg 62%
19:00 +18°C° 0 mm 3 mps 741 mmHg 68%
20:00 +17°C° 0 mm 2 mps 742 mmHg 75%
21:00 +16°C° 0 mm 2 mps 742 mmHg 77%
22:00 +16°C° 0 mm 2 mps 742 mmHg 80%
23:00 +15°C° 0 mm 2 mps 742 mmHg 83%

4 August, Wednesday

Time Temperature Precipitation Wind Pressure Humidity
00:00 +15°C° 0 mm 2 mps 742 mmHg 83%
01:00 +15°C° 0 mm 2 mps 742 mmHg 84%
02:00 +15°C° 0 mm 2 mps 743 mmHg 85%
03:00 +15°C° 0 mm 2 mps 743 mmHg 85%
04:00 +15°C° 0 mm 2 mps 743 mmHg 85%
05:00 +15°C° 0 mm 1 mps 743 mmHg 85%
06:00 +16°C° 0 mm 2 mps 743 mmHg 79%
07:00 +17°C° 0 mm 2 mps 744 mmHg 73%
08:00 +18°C° 0 mm 2 mps 744 mmHg 67%
09:00 +20°C° 0 mm 2 mps 744 mmHg 60%
10:00 +21°C° 0 mm 2 mps 744 mmHg 54%
11:00 +23°C° 0 mm 2 mps 744 mmHg 47%
12:00 +24°C° 0 mm 2 mps 744 mmHg 46%
13:00 +24°C° 0 mm 2 mps 744 mmHg 44%
14:00 +24°C° 0 mm 2 mps 744 mmHg 43%
15:00 +24°C° 0 mm 2 mps 744 mmHg 47%
16:00 +23°C° 0 mm 2 mps 744 mmHg 52%
17:00 +21°C° 0 mm 2 mps 744 mmHg 56%
18:00 +20°C° 0 mm 2 mps 744 mmHg 58%
19:00 +21°C° 0 mm 1 mps 744 mmHg 60%
20:00 +20°C° 0 mm 1 mps 744 mmHg 61%
21:00 +19°C° 0 mm 1 mps 744 mmHg 64%
22:00 +18°C° 0 mm 1 mps 744 mmHg 68%
23:00 +16°C° 0 mm 2 mps 744 mmHg 71%
Show more

We Need Your Consent

Meteoprog and our Service Providers may store and access personal data such as cookies, device identifiers or other similar technologies on your device and process such data to personalise content and ads, as well as provide social media features and to analyse the traffic.

  • Store and/or access information on your device

    Cookies, device identifiers or other information can be stored or accessed on your device for the purposes indicated above.

  • Personalised ads and content, ad and content measurement, audience insights, and products development

    Ads and content can be personalised based on a profile. More data can be added to better personalise ads and content. Ad and content performance can be measured. Insights about the audience who saw the ads and content can be derived. Such data can be used to develop or improve user’s experience, systems and software.

By clicking ‘I Agree’ you will allow the use of indicated cookies, device identifiers, web beacons or other similar technologies. Your settings can be changed in the browser on your device.

For certain purposes, legitimate interests may be relied on, rather than consent. You can read more about this in our Privacy and Cookie Policy.